Weather History for Tri-Cities, TN

Change the Weather History Date:

Saturday, March 8, 2014

  Actual Average Record
Temperature  
Mean Temperature 48 °F 44 °F  
Max Temperature 65 °F 57 °F 78 °F (2000)
Min Temperature 31 °F 33 °F 9 °F (1960)
Degree Days  
Heating Degree Days 17 20  
Month to date heating degree days 173 171  
Since 1 July heating degree days 3668 3553  
Cooling Degree Days 0 0  
Month to date cooling degree days 0 0  
Year to date cooling degree days 0 0  
Moisture  
Dew Point 31 °F    
Average Humidity 59    
Maximum Humidity 92    
Minimum Humidity 26    
Precipitation  
Precipitation 0.00 in 0.11 in 1.53 in (1995)
Month to date precipitation 1.14 0.89  
Year to date precipitation 6.20 7.71  
Snow  
Snow 0.00 in 0.10 in - ()
Month to date snowfall 0.2 0.5  
Since 1 July snowfall 12.5 11.3  
Snow Depth 0.00 in    
Sea Level Pressure  
Sea Level Pressure 30.03 in    
Wind  
Wind Speed 5 mph (WSW)    
Max Wind Speed 17 mph    
Max Gust Speed 22 mph    
Visibility 10 miles    
Events      
T = Trace of Precipitation, MM = Missing Value Source: NWS Daily Summary

Daily Weather History Graph

Daily Weather History Graph

Search for Another Location

Airport:

Trip Planner

Search our weather history database for the weather conditions in past years. The results will help you decide how hot, cold, wet, or windy it might be!

Date:

Astronomy

Mar. 08, 2014 Rise Set
Actual Time 6:50 AM EST 6:30 PM EST
Civil Twilight 6:24 AM EST 6:56 PM EST
Nautical Twilight 5:54 AM EST 7:26 PM EST
Astronomical Twilight 5:24 AM EST 7:56 PM EST
Moon 11:41 AM EST (3/8) 1:17 AM EST (3/8)
Length of Visible Light 12h 31m
Length of Day
11h 40m
First Quarter, 51% of the Moon is Illuminated
Mar 8
First Quarter
Mar 16
Full
Mar 23
Last Quarter
Mar 30
New
Apr 7
First Quarter

Hourly Weather History & Observations

Time (EST) Temp. Windchill Dew Point Humidity Pressure Visibility Wind Dir Wind Speed Gust Speed Precip Events Conditions
12:53 AM 36.0 °F - 32.0 °F 86% 30.00 in 10.0 mi Calm Calm - N/A   Clear
1:53 AM 34.0 °F - 30.0 °F 85% 30.01 in 10.0 mi Calm Calm - N/A   Clear
2:53 AM 35.1 °F - 28.9 °F 78% 29.99 in 10.0 mi Calm Calm - N/A   Clear
3:53 AM 32.0 °F - 30.0 °F 92% 30.01 in 8.0 mi Calm Calm - N/A   Clear
4:53 AM 32.0 °F - 30.0 °F 92% 30.03 in 9.0 mi Calm Calm - N/A   Partly Cloudy
5:53 AM 30.9 °F - 28.0 °F 89% 30.05 in 9.0 mi Calm Calm - N/A   Partly Cloudy
6:31 AM 30.9 °F - 28.9 °F 92% 30.08 in 10.0 mi Calm Calm - N/A   Mostly Cloudy
6:53 AM 33.1 °F - 30.0 °F 89% 30.07 in 10.0 mi Calm Calm - N/A   Mostly Cloudy
7:53 AM 34.0 °F - 30.9 °F 89% 30.09 in 10.0 mi Calm Calm - N/A   Mostly Cloudy
8:53 AM 42.1 °F - 36.0 °F 79% 30.10 in 10.0 mi Calm Calm - N/A   Partly Cloudy
9:53 AM 46.0 °F - 37.0 °F 71% 30.09 in 10.0 mi Calm Calm - N/A   Scattered Clouds
10:53 AM 55.0 °F - 37.9 °F 53% 30.08 in 10.0 mi West 5.8 mph - N/A   Mostly Cloudy
11:53 AM 59.0 °F - 30.9 °F 35% 30.07 in 10.0 mi West 15.0 mph 23.0 mph N/A   Mostly Cloudy
12:53 PM 61.0 °F - 28.9 °F 30% 30.05 in 10.0 mi SW 16.1 mph - N/A   Scattered Clouds
1:53 PM 62.1 °F - 30.9 °F 31% 30.02 in 10.0 mi North - - N/A   Partly Cloudy
2:53 PM 63.0 °F - 28.0 °F 27% 29.99 in 10.0 mi SW 8.1 mph - N/A   Partly Cloudy
3:53 PM 64.0 °F - 30.0 °F 28% 29.99 in 10.0 mi Variable 6.9 mph - N/A   Scattered Clouds
4:53 PM 64.0 °F - 28.0 °F 26% 29.99 in 10.0 mi West 16.1 mph - N/A   Scattered Clouds
5:53 PM 62.1 °F - 28.0 °F 28% 30.00 in 10.0 mi WSW 10.4 mph - N/A   Scattered Clouds
6:53 PM 54.0 °F - 28.9 °F 38% 30.02 in 10.0 mi SSW 6.9 mph - N/A   Scattered Clouds
7:53 PM 52.0 °F - 30.0 °F 43% 30.02 in 10.0 mi WSW 5.8 mph - N/A   Partly Cloudy
8:53 PM 51.1 °F - 30.9 °F 46% 30.01 in 10.0 mi WSW 5.8 mph - N/A   Clear
9:53 PM 45.0 °F 43.5 °F 30.9 °F 58% 30.02 in 10.0 mi NNW 3.5 mph - N/A   Clear
10:53 PM 48.9 °F - 30.9 °F 50% 30.03 in 10.0 mi West 6.9 mph - N/A   Clear
11:53 PM 46.0 °F 42.5 °F 30.0 °F 54% 30.04 in 10.0 mi SW 6.9 mph - N/A   Clear